Location: Newark
(25.4800°N, 85.7200°E)
Time: 16:17:35
(UTC+00:00)

A-11 Canister half - All Passes

Search period start: 23 August 2019 00:00
Search period end: 02 September 2019 00:00
Orbit: 1526 x 1683 km, 47.3° (Epoch: 22 August)

Date Brightness Start Highest point End Pass type
(mag) Time Alt. Az. Time Alt. Az. Time Alt. Az.
23 Aug - 02:16:40 10° SSE 02:21:58 16° ESE 02:27:20 10° E daylight
23 Aug - 04:16:18 10° SW 04:26:01 77° SE 04:36:04 10° NE daylight
23 Aug - 06:22:57 10° W 06:31:52 36° NNW 06:40:59 10° NE daylight
23 Aug - 08:33:05 10° NW 08:40:06 20° N 08:47:09 10° NE daylight
23 Aug - 10:40:14 10° NW 10:48:46 29° NNE 10:57:12 10° E daylight
23 Aug - 12:45:03 10° NW 12:55:15 79° NE 13:05:10 10° SE daylight
23 Aug - 14:51:51 10° WNW 14:59:40 26° SW 15:07:20 10° S visible
24 Aug - 01:55:43 10° SSE 02:00:23 14° ESE 02:05:06 10° E daylight
24 Aug - 03:54:44 10° SW 04:04:23 73° SE 04:14:22 10° NE daylight
24 Aug - 06:01:08 10° W 06:10:07 38° NNW 06:19:19 10° NE daylight
24 Aug - 08:11:14 10° NW 08:18:16 20° N 08:25:21 10° NE daylight
24 Aug - 10:18:34 10° NW 10:26:59 28° NNE 10:35:19 10° ENE daylight
24 Aug - 12:23:24 10° NW 12:33:35 76° NE 12:43:31 10° SE daylight
24 Aug - 14:29:58 10° WNW 14:38:04 28° SW 14:46:01 10° S visible
25 Aug - 01:34:55 10° SSE 01:38:49 13° ESE 01:42:43 10° E daylight
25 Aug - 03:33:11 10° SSW 03:42:46 69° SE 03:52:41 10° NE daylight
25 Aug - 05:39:20 10° W 05:48:23 39° NNW 05:57:40 10° NE daylight
25 Aug - 07:49:22 10° NW 07:56:26 21° N 08:03:33 10° NE daylight
25 Aug - 09:56:54 10° NW 10:05:12 27° NNE 10:13:26 10° ENE daylight
25 Aug - 12:01:45 10° NW 12:11:55 72° NE 12:21:50 10° SE daylight
25 Aug - 14:08:07 10° WNW 14:16:28 31° SW 14:24:40 10° S visible
26 Aug - 01:14:23 10° SE 01:17:14 12° ESE 01:20:06 10° ESE daylight
26 Aug - 03:11:38 10° SSW 03:21:08 65° SE 03:30:59 10° NE daylight
26 Aug - 05:17:33 10° W 05:26:39 41° NNW 05:36:01 10° NE daylight
26 Aug - 07:27:30 10° NW 07:34:36 21° N 07:41:47 10° NE daylight
26 Aug - 09:35:14 10° NW 09:43:25 27° NNE 09:51:32 10° ENE daylight
26 Aug - 11:40:05 10° NW 11:50:14 69° NE 12:00:09 10° ESE daylight
26 Aug - 13:46:16 10° WNW 13:54:52 33° SW 14:03:19 10° S visible
27 Aug - 00:54:46 10° SE 00:55:39 10° ESE 00:56:32 10° ESE daylight
27 Aug - 02:50:06 10° SSW 02:59:31 61° SE 03:09:16 10° NE daylight
27 Aug - 04:55:46 10° WSW 05:04:55 43° NNW 05:14:22 10° NE daylight
27 Aug - 07:05:39 10° NW 07:12:47 21° N 07:20:00 10° NE daylight
27 Aug - 09:13:33 10° NW 09:21:37 26° NNE 09:29:39 10° ENE daylight
27 Aug - 11:18:26 10° NW 11:28:33 65° NE 11:38:27 10° ESE daylight
27 Aug - 13:24:27 10° WNW 13:33:16 35° SW 13:41:55 10° S visible
28 Aug - 02:28:36 10° SSW 02:37:55 57° SE 02:47:33 10° NE daylight
28 Aug - 04:34:00 10° WSW 04:43:12 45° NNW 04:52:44 10° NE daylight
28 Aug - 06:43:46 10° NW 06:50:57 21° N 06:58:14 10° NE daylight
28 Aug - 08:51:52 10° NW 08:59:49 25° NNE 09:07:45 10° ENE daylight
28 Aug - 10:56:48 10° NW 11:06:51 62° NE 11:16:45 10° ESE daylight
28 Aug - 13:02:40 10° WNW 13:11:39 38° SW 13:20:30 10° S visible
29 Aug - 02:07:05 10° SSW 02:16:18 54° SE 02:25:49 10° ENE daylight
29 Aug - 04:12:15 10° WSW 04:21:30 47° NW 04:31:04 10° NE daylight
29 Aug - 06:21:55 10° WNW 06:29:08 22° N 06:36:29 10° NE daylight
29 Aug - 08:30:11 10° NW 08:38:01 24° NNE 08:45:51 10° ENE daylight
29 Aug - 10:35:08 10° NW 10:45:10 59° NE 10:55:02 10° ESE daylight
29 Aug - 12:40:52 10° WNW 12:50:03 41° SW 12:59:04 10° SSE daylight
30 Aug - 01:45:36 10° SSW 01:54:42 50° SE 02:04:05 10° ENE daylight
30 Aug - 03:50:30 10° WSW 03:59:48 49° NW 04:09:25 10° NE daylight
30 Aug - 06:00:02 10° WNW 06:07:19 22° NNW 06:14:44 10° NE daylight
30 Aug - 08:08:29 10° NW 08:16:12 24° NNE 08:23:56 10° ENE daylight
30 Aug - 10:13:30 10° NW 10:23:28 56° NE 10:33:17 10° ESE daylight
30 Aug - 12:19:05 10° WNW 12:28:26 43° SW 12:37:37 10° SSE daylight
31 Aug - 01:24:08 10° SSW 01:33:06 47° SE 01:42:21 10° ENE daylight
31 Aug - 03:28:46 10° WSW 03:38:06 51° NW 03:47:47 10° NE daylight
31 Aug - 05:38:10 10° WNW 05:45:31 23° NNW 05:52:59 10° NE daylight
31 Aug - 07:46:48 10° NW 07:54:24 23° NNE 08:02:02 10° ENE daylight
31 Aug - 09:51:52 10° NW 10:01:46 54° NE 10:11:32 10° ESE daylight
31 Aug - 11:57:19 10° WNW 12:06:49 46° SW 12:16:09 10° SSE daylight
01 Sep - 01:02:40 10° SSW 01:11:30 44° SE 01:20:35 10° ENE daylight
01 Sep - 03:07:03 10° WSW 03:16:24 54° NW 03:26:08 10° NE daylight
01 Sep - 05:16:18 10° WNW 05:23:43 23° NNW 05:31:16 10° NE daylight
01 Sep - 07:25:06 10° NW 07:32:35 23° NNE 07:40:07 10° ENE daylight
01 Sep - 09:30:13 10° NW 09:40:03 51° NE 09:49:47 10° ESE daylight
01 Sep - 11:35:35 10° WNW 11:45:11 49° SW 11:54:40 10° SSE daylight
